100417 B42  0.2+  0.1+    100423 A17  0.2-  0.2-    100508 D95  0.3+  0.6-
100417 215  0.0   0.0     100423 C23  0.0   0.1+    100508 D95  0.3+  0.2-
100417 C23  0.3-  0.0     100423 850  0.9-  0.0     100508 D95  0.7+  0.0
100417 215  0.0   0.1-    100423 H47  0.4-  0.2-    100508 D95  0.3-  0.2-
100417 510  0.0   0.0     100423 850  0.4-  0.2-    100508 D81 (5.2-  1.6-)
100417 215  0.2-  0.0     100423 H47  0.6-  0.4-    100508 D81 (5.2-  0.8-)
100417 B42  0.0   0.2+    100423 H47  0.2-  0.2-    100508 D81 (3.5-  0.4-)
100417 510  0.1+  0.0     100423 H10  1.6-  0.8-    100508 900  0.2-  0.1-
100417 C23  0.2-  0.5+    100423 H10 (2.1-  0.7-)   100508 900  0.0   0.0
100417 510  0.0   0.1+    100423 H10 (2.6-  1.9-)   100508 157  0.2-  0.1+
100417 A21  1.0+  0.3+    100423 E10  0.0   0.0     100508 157  0.1+  0.1+
100417 A21  0.8+  0.2+    100423 E10  0.2+  0.0     100508 157  0.1-  0.1+
100417 A21  0.8+  0.2+    100423 E10  0.2+  0.3+    100508 157  0.0   0.1+
100417 A71  0.1-  0.0     100423 C06  1.5-  1.1-    100508 C23  1.4+  1.3+
100417 A21  0.5+  0.3+    100423 C06  1.4-  0.6-    100508 C23  0.4+  0.5-
100417 A71  0.1-  0.2+    100423 372  0.1-  0.0     100508 213  0.1-  0.0
100417 B09  0.4-  0.3+    100423 372  0.2-  0.1-    100508 B33  0.0   0.2+
100417 A21  0.5+  0.3+    100423 372  0.1-  0.4-    100508 213  0.3+  0.3+
100417 B90  0.6+  0.0     100423 C23  0.2-  0.1+    100508 213  0.1+  0.2+
100417 A71  0.0   0.1+    100423 C23  0.3+  0.9-    100508 442  0.4-  0.4+
100417 B09  0.1+  0.2-    100423 I99  0.1-  0.1-    100508 B33  0.3+  0.1+
100417 B90  0.7+  0.2-    100423 I99  0.2+  0.2+    100508 442  0.7-  0.1+
100417 A71  0.1+  0.1+    100423 I99  0.1+  0.1-    100508 J08 (4.4-  0.4+)
100417 A71  0.2+  0.1+    100423 C23  0.0   0.7+    100508 B53  0.1+  0.1+
100417 J47  0.2-  0.0     100423 J47  0.0   0.1+    100508 B53  0.3+  0.0
100417 A71  0.1+  0.1+    100423 J47  0.1+  0.1+    100508 B53  0.4+  0.1+
100417 A71  0.1+  0.1+    100423 J47  0.1+  0.2+    100508 B53  0.4+  0.3+
100417 583  0.3+  0.3+    100423 J47  0.1+  0.1+    100508 B53  0.3+  0.2+
100417 J47  0.4-  0.0     100423 J01  0.2-  0.0     100508 B53  0.3+  0.6-
100417 B53  0.2+  0.2+    100423 B96  0.4+  0.1-    100508 B53  0.2-  0.6+
100417 B53  0.1+  0.1+    100423 B96  0.4+  0.6+    100508 B53  0.1-  0.2+
100417 B53  0.1+  0.1+    100423 B96  0.1+  0.3-    100509 H47  0.1-  0.1+
100417 J47  0.4-  0.1+    100423 J01  0.4-  0.1+    100509 H47  0.4-  0.5-
100417 B53  0.0   0.1+    100423 B96  0.5+  0.3+    100509 H47  0.4-  0.5-
100417 B53  0.2+  0.1+    100423 B96  0.3-  0.2-    100509 H10 (2.5+  0.7+)
100417 A71  0.0   0.1+    100423 B96  0.0   0.2-    100509 H10 (2.5+  1.9+)
100417 B53  0.1+  0.2+    100423 B96  0.1-  0.4+    100509 D95  0.1+  0.1+
100418 557  0.2+  0.2-    100423 J01  0.1-  0.1-    100509 D95  0.4-  0.0
100418 557  0.2+  0.2-    100424 B59  0.4+  0.3+    100509 D95  0.1+  0.5-
100418 557  0.4+  0.2-    100424 844  0.5-  0.1-    100509 D96  0.3+  0.1-
100418 557  0.4+  0.2-    100424 844  0.4+  0.2-    100509 D96  0.2-  0.1+
100418 557  0.4+  0.2-    100424 B59  0.0   0.2+    100509 J01  0.1+  0.0
100418 557  0.4+  0.2-    100424 B59  0.1-  0.0     100509 J01  0.1-  0.1-
100418 B50  0.1+  0.2-    100424 B59  0.2+  0.3+    100509 J01  0.1+  0.1-
100418 C10  0.1+  0.1+    100424 844  0.1+  0.1-    100510 844  0.2-  0.2+
100418 B50  0.0   0.2+    100424 B59  0.1+  0.1+    100510 844  0.3-  0.2+
100418 C10  0.2+  0.1+    100424 844  0.0   0.3-    100510 844  0.0   0.1-
100418 C10  0.1+  0.0     100424 C10  0.2+  0.0     100510 844  0.1+  0.0
100418 C10  0.1+  0.1+    100424 C10  0.0   0.0     100510 844  0.2-  0.0
100418 B82  0.2+  0.1+    100424 C10  0.1+  0.0     100510 844  0.2-  0.1+
100418 B50  0.2-  0.4-    100424 C10  0.1+  0.1-    100510 844  0.3-  0.0
100418 C10  0.1+  0.1+    100424 H36  0.5-  0.2-    100510 J47  0.0   0.1-
100418 B82  0.2+  0.1+    100424 H10  0.9-  0.9-    100510 J47  0.1+  0.7-
100418 B82  0.1+  0.1+    100424 H10  1.0-  0.9-    100510 J47  0.4-  0.4-
100418 B82  0.0   0.1+    100424 D92  0.4+  0.2-    100510 J47  0.7-  0.3-
100418 C10  0.0   0.2+    100424 D92  0.2-  0.0     100511 B96  0.1+  0.8+
100418 J95  0.0   0.0     100424 D93  0.0   0.2+    100511 B96  0.7+  0.5+
100418 B50  0.1+  0.7-    100424 D93  0.3+  0.4+    100511 B96  0.6+  0.3-
100418 J95  0.2+  0.1+    100424 D93  0.2-  0.8-    100511 B96  0.0   0.8+
100418 D95  0.1-  0.2-    100424 372  0.5+  0.4+    100511 B96  0.9+  0.4+
100418 D95  0.1-  0.1-    100424 372  0.4+  0.3+    100511 B96  0.5+  0.3+
100418 D95  0.1-  0.0     100424 367  0.2-  0.5-    100511 B96  0.7-  0.6+
100418 D95  0.2-  0.1-    100424 367  0.2-  0.4-    100511 D96  0.1-  1.3-
100418 D93  0.1+  0.5+    100424 367  0.2-  0.4-    100511 J08  0.3+  1.2-
100418 D93  0.2+  0.7+    100424 046  0.1+  0.1-    100511 J47  0.0   0.2-
100418 D93  0.0   0.4+    100424 046  0.1+  0.6-    100511 J47  0.6-  0.4-
100418 D93  0.2+  0.6+    100424 046  0.4-  0.1+    100511 J47  0.6-  0.2+
100418 D93  0.1+  0.7+    100424 046  0.5-  0.5-    100511 J47  0.0   0.1-
100418 235  0.1-  0.2-    100424 046  0.1-  0.2-    100512 H10  0.6+  0.1-
100418 A17  0.4+  0.2+    100424 046  0.1+  0.5-    100512 H10  0.2+  0.1-
100418 B90  0.0   0.0     100424 J51  0.1+  0.1+    100512 H10  0.0   0.1-
100418 A17  0.4+  0.1-    100424 J01  0.3-  0.0     100512 H10  0.3-  0.3-
100418 B90  0.2+  0.3+    100424 J51  0.2-  0.3-    100512 H10  0.0   0.2+
100418 611  0.0   0.1+    100424 J01  0.1-  0.1+    100512 H10  0.1+  0.1-
100418 611  0.1+  0.2+    100424 J51  0.3-  0.2-    100512 585  1.1-  0.0
100418 B96  0.9+  0.0     100424 J01  0.1+  0.0     100512 585  0.2-  0.3-
100418 611  0.1-  0.1+    100425 A71  0.4-  0.1+    100512 585  0.0   0.6-
100418 B96  0.3-  0.0     100425 A71  0.3-  0.1+    100512 A71  0.2-  0.3-
100418 213  0.0   0.1+    100425 A71  0.6+  0.2-    100512 585  0.6-  0.2-
100418 B90  0.0   0.2+    100425 A71  0.2-  0.0     100512 585  0.1-  0.2-
100418 B09  0.2+  0.2+    100425 A71  0.1-  0.1-    100512 A71  0.2-  0.3-
100418 B96  0.7+  0.0     100425 A71  0.5-  0.1-    100512 A71  0.0   0.6-
100418 A17  0.2+  0.1-    100425 B74  0.3+  0.3-    100512 585  0.2-  0.2-
100418 B09  0.0   0.1-    100425 B74  0.8-  0.4-    100512 A71  0.0   0.5-
100418 B09  0.0   0.0     100425 B74  0.3-  0.4-    100512 A71  0.1-  0.4-
100418 B96  0.2+  0.0     100425 H06  0.1+  0.0     100512 585  0.3-  0.5-
100418 213  0.1-  0.0     100425 H06  0.5+  0.1-    100512 J08  1.7-  0.5-
100418 B96  0.1-  0.1+    100425 D95  0.7+  0.5-
100418 B96  0.2+  0.2-    100425 D95  0.4+  0.6-

NAKANO
         **** Don't distribute anyone except personal use only ****
           (C) Copyright 2010 Orbit.Astro.Assoc./ComputingSection
write mail from CFAD0::NAKANO on 2010-05-16 04:54:15(JST).
◎P/2010 H2の軌道と予報位置

 4月16日,チャニーバーから12等級と明るい小惑星状天体の発見が報告され
ました.この天体の移動量は,1日に 約11'と遅く,地球接近天体以外,この
ように明るくなる小惑星は,もはや残っておらず,天体は,彗星であることが
推定されました.4月17日に各地で行なわれた観測の結果,天体には 60"ほど
のコマが認められ,彗星であることが判明しました.なお,天体は,ヒルダ型
の彗星が,突然,アウトバーストを起こし,その直後に発見されたものでしょ
う.
 山口の吉本勝巳氏は,4月16日と17日の眼視全光度を,それぞれ,12.9等,
12.3等と観測しています.また,4月17日の CCD全光度は,上尾の門田健一氏
が12.3等,美星(浅見・坂本)のそれは12.2等と報告しています.

    P/2010 H2 
T 2010 May 15.08639 TT                                  Nakano
q   3.0732222            (2000.0)            P               Q
n   0.12942715     Peri.  143.12685     -0.86906287     +0.44299742
a   3.8706668      Node    64.57038     -0.49177254     -0.72526022
e   0.2060225      Incl.   14.11155     -0.05375413     -0.52702078
P   7.62 (+/- 8.39 days)
From 233 observations 2010 Apr. 16-17.
 
2010/        α  (2000) δ      △      r    Daily motion  Elong. Phase    m1 
 23h JST    h  m       。  ,        AU      AU      ,     。     。      。      等
Apr. 10   13 43.48  +04 40.1    2.097   3.077    11.2/277   165.6    4.7   12.0
     11   13 42.74  +04 41.4    2.096   3.077    11.2/276   165.7    4.6   12.0
     12   13 41.99  +04 42.6    2.095   3.077    11.2/276   165.7    4.6   12.0
     13   13 41.24  +04 43.7    2.095   3.076    11.3/275   165.7    4.6   12.0
     14   13 40.49  +04 44.7    2.095   3.076    11.3/274   165.6    4.7   12.0
     15   13 39.74  +04 45.5    2.095   3.076    11.3/274   165.4    4.7   12.0
     16   13 38.99  +04 46.3    2.095   3.076    11.3/273   165.1    4.8   12.0
     17   13 38.24  +04 46.9    2.096   3.076    11.2/272   164.7    4.9   12.0
     18   13 37.49  +04 47.4    2.097   3.075    11.2/272   164.2    5.1   12.0
     19   13 36.74  +04 47.7    2.098   3.075    11.2/271   163.7    5.3   12.0
     20   13 35.99  +04 47.9    2.100   3.075    11.1/270   163.1    5.4   12.0
     21   13 35.25  +04 48.0    2.102   3.075    11.0/270   162.5    5.6   12.0
     22   13 34.51  +04 48.0    2.104   3.075    11.0/269   161.8    5.9   12.0
     23   13 33.78  +04 47.8    2.106   3.075    10.9/268   161.1    6.1   12.0
     24   13 33.05  +04 47.4    2.109   3.075    10.8/267   160.3    6.3   12.0
     25   13 32.33  +04 47.0    2.112   3.074    10.7/267   159.6    6.6   12.0
     26   13 31.62  +04 46.3    2.115   3.074    10.6/266   158.7    6.8   12.0
     27   13 30.91  +04 45.6    2.118   3.074    10.5/265   157.9    7.1   12.0
     28   13 30.21  +04 44.7    2.122   3.074    10.3/264   157.0    7.3   12.0
     29   13 29.52  +04 43.6    2.126   3.074    10.2/263   156.1    7.6   12.0
     30   13 28.85  +04 42.4    2.130   3.074    10.1/262   155.3    7.9   12.0
May   1   13 28.18  +04 41.1    2.134   3.074     9.9/261   154.3    8.2   12.0
      2   13 27.52  +04 39.6    2.139   3.074     9.8/260   153.4    8.4   12.0
      3   13 26.88  +04 38.0    2.144   3.074     9.6/259   152.5    8.7   12.0
      4   13 26.25  +04 36.2    2.149   3.074     9.5/258   151.5    9.0   12.0
      5   13 25.63  +04 34.3    2.155   3.074     9.3/257   150.6    9.3   12.0
      6   13 25.02  +04 32.2    2.160   3.073     9.1/256   149.6    9.5   12.0
      7   13 24.43  +04 30.0    2.166   3.073     9.0/255   148.7    9.8   12.1
